Home > Time Zones > World Clock > Weather > Chile > Talca > Past weeks

Flag for Chile Weather past 2 weeks in Talca, Chile

Now
52 °F

Clear.


Feels Like: 49 °F
Forecast: 47 / 76 °F
Wind: 8 mph from Southwest

Location: Concepcion Airport


UV Index: 3 (Moderate)

Visibility: 10 mi


Pressure: 30.21 "Hg

Humidity: 72%

Dew point: 43 °F

Location of TalcaLocation

Historic Weather in Talca

°F

Talca temperature yesterday

Maximum temperature yesterday: 64 °F (at 12:00 PM)
Minimum temperature yesterday: 55 °F (at 9:00 AM)
Average temperature yesterday: 61 °F

Past Weeks' High & Low Weather Summary

 TemperatureHumidityPressure
High72 °F (Apr 14, 2:00 PM)100% (Apr 2, 2:00 AM)30.33 "Hg (Apr 2, 2:00 AM)
Low41 °F (Apr 10, 6:00 AM)40% (Apr 13, 2:00 PM)29.92 "Hg (Apr 6, 4:00 AM)
Average55 °F81%30.09 "Hg
* Reported Apr 1 9:00 PM — Apr 16 9:00 PM, Talca, Weather by CustomWeather, © 2014

Note: Actual official high and low records may vary slightly from our data, if they occured in-between our weather recording intervals... More about our weather records

Advertising

Historic Weather Conditions — Data for Previous 24 hours

 ConditionsComfort  
Time TempWeatherWind HumidityBarometerVisibility
9:00 PM
Apr 16
55 °FPassing clouds.13 mph59%30.18 "HgN/A
8:00 PM57 °FPassing clouds.17 mph55%30.15 "HgN/A
7:00 PM59 °FClear.20 mph51%30.12 "Hg10 mi
6:00 PM61 °FSunny.22 mph52%30.12 "Hg10 mi
5:00 PM63 °FSunny.24 mph49%30.09 "Hg10 mi
4:00 PM63 °FSunny.17 mph49%30.09 "Hg10 mi
3:00 PM63 °FPassing clouds.16 mph59%30.09 "HgN/A
2:00 PM64 °FSunny.15 mph60%30.09 "Hg10 mi
1:00 PM63 °FScattered clouds.13 mph68%30.09 "HgN/A
12:00 PM59 °FScattered clouds.12 mph77%30.12 "HgN/A
11:00 AM57 °FPassing clouds.7 mph82%30.09 "HgN/A
10:00 AM52 °FPassing clouds.5 mph88%30.09 "HgN/A
9:00 AM48 °FPartly sunny.3 mph87%30.09 "HgN/A
8:00 AM45 °FSunny.No wind93%30.07 "Hg10 mi
7:00 AM45 °FClear.2 mph93%30.07 "Hg10 mi
6:00 AM46 °FClear.2 mph93%30.07 "Hg10 mi
5:00 AM48 °FClear.2 mph87%30.07 "Hg10 mi
4:00 AM48 °FClear.2 mph94%30.07 "Hg10 mi
3:00 AM50 °FClear.6 mph100%30.07 "Hg10 mi
2:00 AM52 °FClear.8 mph94%30.07 "Hg10 mi
1:00 AM54 °FClear.9 mph88%30.07 "Hg10 mi
12:00 AM54 °FClear.10 mph88%30.04 "Hg10 mi
11:00 PM
Apr 15
55 °FClear.9 mph82%30.01 "Hg10 mi
10:00 PM57 °FClear.14 mph77%29.98 "Hg10 mi
Weather by CustomWeather, © 2014

See weather overview